Regional Weather Roundup
Issued by NWS Upton, NY

Current Version | Previous Version | Text Only | Print | Product List | Glossary On
Versions: 1 2 3 4 5 6 7 8 9 10 11 12 13 14 15 16 17 18 19 20 21 22 23 24 25 26 27
000 ASUS41 KOKX 212309 RWROKX REGIONAL WEATHER ROUNDUP NATIONAL WEATHER SERVICE NEW YORK NY 700 PM EDT WED JUN 21 2017 NOTE: "FAIR" INDICATES FEW OR NO CLOUDS BELOW 12,000 FEET WITH NO SIGNIFICANT WEATHER AND/OR OBSTRUCTIONS TO VISIBILITY. NYZ071-072-176-178-NJZ106-104-220000- NEW YORK CITY METRO AREA CITY SKY/WX TMP DP RH WIND PRES REMARKS Central Park SUNNY 81 57 43 MISG 29.90R Bronx Bot Gard N/A 82 57 42 W8 29.89R LaGuardia APRT PTSUNNY 85 53 33 W13G18 29.86R Kennedy INTL CLOUDY 77 67 71 S14 29.87S Breezy Point N/A 73 N/A N/A W14 N/A Newark/Liberty MOSUNNY 82 55 39 SW21 29.87R Teterboro SUNNY 82 56 40 W13 29.86R $$ NYZ177-179-078>081-220000- LONG ISLAND NEW YORK CITY SKY/WX TMP DP RH WIND PRES REMARKS Jones Beach N/A 72 N/A N/A SW10G22 N/A Matinecock PT NOT AVBL Farmingdale NOT AVBL MacArthur/ISP PTSUNNY 73 66 78 SW5 29.88F Shirley CLOUDY 75 62 64 SW8 29.89R Mt Sinai Harb N/A 72 N/A N/A S5 N/A Westhampton CLOUDY 72 67 84 SW9 29.91R East Hampton FAIR 71 65 83 SW10G17 29.88R Montauk N/A 73 67 81 SW9G20 29.89R $$ NYZ052-065-067-220000- HUDSON VALLEY CITY SKY/WX TMP DP RH WIND PRES REMARKS White Plains MOSUNNY 79 55 44 W6 29.88S Larchmont Harb N/A 73 N/A N/A S6 N/A Croton O-T Hud N/A 79 N/A N/A S5 N/A Newburgh MOSUNNY 77 59 53 NW8 29.89R Montgomery MOSUNNY 80 54 40 NW6 29.88R Poughkeepsie SUNNY 79 56 45 W7 29.86R Albany MOSUNNY 74 52 46 NW10 29.89R $$ NJZ001-105-106-008-010-013-015-019>022-104-220000- NEW JERSEY CITY SKY/WX TMP DP RH WIND PRES REMARKS Newark/Liberty MOSUNNY 82 55 39 SW21 29.87R Teterboro SUNNY 82 56 40 W13 29.86R Caldwell SUNNY 83 56 39 W9 29.88R Somerville SUNNY 79 59 50 CALM 29.88R Linden FAIR 80 51 36 W9 29.89R Perth Amboy N/A 77 N/A N/A W15 N/A Sussex MOSUNNY 77 59 53 CALM 29.89R Andover N/A 78 56 46 VRB6 29.89S Trenton CLOUDY 73 64 73 SW7 29.92R Millville MOSUNNY 81 68 64 VRB7 29.90R Atlantic City NOT AVBL Wrightstown MOSUNNY 70 66 88 CALM 29.89F Toms River CLOUDY 70 67 90 SE3 29.92S Belmar CLOUDY 68 64 87 SW5 29.92S $$ PAZ047>061-062-071-220000- EASTERN PENNSYLVANIA CITY SKY/WX TMP DP RH WIND PRES REMARKS Philadelphia LGT RAIN 72 64 76 W7 29.92S Allentown SUNNY 79 61 53 SW10 29.91R Scranton PTSUNNY 78 56 46 NW9 29.92R $$ CTZ002-004>006-009-010-012-RIZ004-006-007-MAZ004-011-015-220000- SOUTHERN NEW ENGLAND IN CT CITY SKY/WX TMP DP RH WIND PRES REMARKS Bradley INTL MOSUNNY 77 60 55 W9 29.86R Hartford MOSUNNY 77 62 59 W6 29.85S Danbury MOSUNNY 77 57 50 NW5 29.89R Wtrbury/Oxford PTSUNNY 73 54 49 N6 29.89S Bridgeport MOSUNNY 76 61 59 SW12 29.86R Meriden PTSUNNY 79 56 45 VRB3 29.86R New Haven NOT AVBL Chester LGT RAIN 77 59 53 VRB5 29.87R Groton PTSUNNY 74 64 71 SW10 29.85R Wilimantic MOSUNNY 75 62 64 W5 29.86S IN RI CITY SKY/WX TMP DP RH WIND PRES REMARKS Providence CLOUDY 81 55 40 W14 29.84R Block Island MOSUNNY 69 65 86 SW16G23 29.88R Westerly SUNNY 77 65 66 SW10 29.86R IN MA CITY SKY/WX TMP DP RH WIND PRES REMARKS Boston MOSUNNY 81 51 35 NW17 29.82R Worcester MOSUNNY 75 50 41 NW13G18 29.88R Westfield SUNNY 79 53 40 NW10 29.86R Provincetown PTSUNNY 66 61 84 W10G18 29.84R Nantucket CLOUDY 63 62 97 SW17 29.87S FOG $$ ANZ330-335-338-340-345-350-353-355-220000- COASTAL MARINE OBSERVATIONS STATION/POSITION TIME SKY/WX TEMP WIND PRES VSBY WAVE AIR SEA DIR/SP/G HT/PER (UTC) (F) (DEG/KT/KT) (MB) (MI) (FT/S) NY HARB ENTRANCE 2150 68 66 200/ 12/ 16 1011.3 3/ 6 20 S FIRE ISLAND 2250 70 68 220/ 19/ 31 1011.6 4/ 6 GREAT SOUTH BAY 2230 71 76 340/ 4/ 17 N/A 23 SSW MONTAUK P 2150 66 63 1011.6 4/ 5 15 E BARNEGAT LI 2200 66 N/A 4/ 6 HUDSON CANYON 2150 67 65 210/ 17/ 19 1012.9 4/ 5 KINGS POINT 2230 76 65 60/ 3/ 4 1011.2 EXECUTION ROCKS 2245 75 300/ 2/ 2 N/A CENTRAL LI SOUND 2200 75 240/ 8/ 10 N/A 1 EASTERN LI SOUND NOT AVBL ROBBINS REEF 2230 260/ 15/ 20 1011.9 $$ >>>>>>>>>>>>>>>>>>>>>>>>>>>> KEY <<<<<<<<<<<<<<<<<<<<<<<<<<< > < > SKY/WX - Sky Condition/Present Weather < > TMP - Temperature in Fahrenheit < > DP - Dew Point in Fahrenheit < > RH - Relative Humidity in Percent < > WIND - Direction (from) and Speed in MPH < > PRES - Mean Sea Level Pressure (inches of Hg) < > WCI - Wind Chill Index < > VSB - VISIBILITY IN MILES < > HX - HEAT INDEX < > TC - TEMPERATURE IN CELSIUS < > VRB - VARIABLE WIND DIRECTION < > < >>>>>>>>>>>>>>>>>>>>>>>>>>>> KEY <<<<<<<<<<<<<<<<<<<<<<<<<<<

USA.gov is the U.S. government's official web portal to all federal, state and local government web resources and services.